Simultaneous Nadir Overpasses (SNOs) Predictions

Prediction of SNOs between METOP-B and TERRA Satellite Orbit:

Table of predicted SNOs for the next 14.0 days since TLE Epoch: 8/9/2014
Index Date (METOP-B) Time (METOP-B) Lat,Lon (METOP-B) SZA (METOP-B ) Date (TERRA) Time (TERRA) Lat,Lon (TERRA) SZA (TERRA ) Distance(km) Time Diff (sec)
1 08/09/2014 22:56:32 81.33,-116.61 68.42 08/09/2014 22:57:32 81.33,-116.60 68.45 0.03 60
2 08/09/2014 23:47:12 -81.34, 51.22 111.52 08/09/2014 23:46:58 -81.34, 51.32 111.51 1.90 14
3 08/12/2014 18:30:53 81.33, -49.87 69.30 08/12/2014 18:31:49 81.34, -50.04 69.31 2.81 56
4 08/12/2014 19:21:34 -81.33, 117.60 110.68 08/12/2014 19:21:16 -81.33, 117.53 110.70 1.29 18
5 08/15/2014 14:05:15 81.33, 16.42 70.16 08/15/2014 14:06:06 81.34, 16.40 70.18 0.65 51
6 08/1
